This is the latest recevied weather packets stored in our database for station/object KN4MGS. If no packets are shown the sender has not sent any weather packets the latest 10 day(s).
| Time | Temp. | Humidity | Pressure | Rain* | Wind** | Luminosity | Snow |
|---|---|---|---|---|---|---|---|
| 1778070895 | 17.22° C | 86% | 1018 hPa | 0 mm | - | 65 W/m² | - |
| 1778070592 | 17.22° C | 87% | 1018.2 hPa | 0 mm | - | 76 W/m² | - |
| 1778070289 | 17.22° C | 87% | 1018.2 hPa | 0 mm | - | 73 W/m² | - |
| 1778069987 | 17.22° C | 87% | 1018.3 hPa | 0 mm | - | 74 W/m² | - |
| 1778069684 | 17.22° C | 87% | 1018.2 hPa | 0 mm | - | 63 W/m² | - |
| 1778069381 | 16.67° C | 87% | 1018.8 hPa | 0 mm | - | 39 W/m² | - |
| 1778069079 | 17.22° C | 87% | 1018.5 hPa | 0 mm | - | 42 W/m² | - |
| 1778068776 | 16.67° C | 86% | 1018.2 hPa | 0 mm | - | 49 W/m² | - |
| 1778068474 | 16.67° C | 86% | 1018.6 hPa | 0 mm | - | 47 W/m² | - |
| 1778068171 | 17.22° C | 86% | 1018 hPa | 0 mm | - | 58 W/m² | - |
| 1778067869 | 16.67° C | 87% | 1017.9 hPa | 0 mm | - | 58 W/m² | - |
| 1778067567 | 16.67° C | 86% | 1018.1 hPa | 0 mm | - | 72 W/m² | - |
| 1778067264 | 16.67° C | 87% | 1018.1 hPa | 0 mm | - | 64 W/m² | - |
| 1778066955 | 16.67° C | 87% | 1017.7 hPa | 0 mm | - | 55 W/m² | - |
| 1778066653 | 16.67° C | 87% | 1017.7 hPa | 0 mm | - | 44 W/m² | - |
| 1778066350 | 16.67° C | 87% | 1017.7 hPa | 0 mm | - | 36 W/m² | - |
| 1778066048 | 16.67° C | 87% | 1017.5 hPa | 0 mm | - | 26 W/m² | - |
| 1778065745 | 16.67° C | 87% | 1017.6 hPa | 0 mm | - | 21 W/m² | - |
| 1778065443 | 16.67° C | 87% | 1017.5 hPa | 0 mm | - | 21 W/m² | - |
| 1778065139 | 16.67° C | 87% | 1017.4 hPa | 0 mm | - | 17 W/m² | - |
| 1778064835 | 16.67° C | 87% | 1017.3 hPa | 0 mm | - | 14 W/m² | - |
| 1778064533 | 16.67° C | 87% | 1017.3 hPa | 0 mm | - | 10 W/m² | - |
| 1778064231 | 16.67° C | 86% | 1016.8 hPa | 0 mm | - | 7 W/m² | - |
| 1778063928 | 16.67° C | 87% | 1016.9 hPa | 0 mm | - | 5 W/m² | - |
| 1778063626 | 16.67° C | 86% | 1016.8 hPa | 0 mm | - | 2 W/m² | - |
* Rain latest hour (hover to see other rain measurements)
** Current wind speed in m/s (hover to see current wind gust speed)